| time (UTC) | temp C | wind direction | speed KPH | gust KPH | rain 1hr cm | rain 24hr cm | rain mn cm | humidity % | barometer mb |
| 20260904222004 | 30 | 199 | 25.7 | 35.4 | 0.00 | 0.00 | 0.00 | 13 | 1020.2 |
| 20260904221505 | 30 | 214 | 22.5 | 37.0 | 0.00 | 0.00 | 0.00 | 12 | 1020.2 |
| 20260904221004 | 30 | 203 | 25.7 | 41.8 | 0.00 | 0.00 | 0.00 | 13 | 1020.3 |
| 20260904220503 | 30 | 193 | 25.7 | 37.0 | 0.00 | 0.00 | 0.00 | 14 | 1020.3 |
| 20260904220003 | 30 | 202 | 27.4 | 40.2 | 0.00 | 0.00 | 0.00 | 14 | 1020.4 |
| 20260904215503 | 30 | 195 | 22.5 | 33.8 | 0.00 | 0.00 | 0.00 | 14 | 1020.4 |
| 20260904214504 | 30 | 207 | 20.9 | 33.8 | 0.00 | 0.00 | 0.00 | 15 | 1020.5 |
| 20260904214003 | 30 | 202 | 17.7 | 29.0 | 0.00 | 0.00 | 0.00 | 16 | 1020.5 |
| 20260904213504 | 30 | 197 | 20.9 | 32.2 | 0.00 | 0.00 | 0.00 | 16 | 1020.6 |
| 20260904213004 | 30 | 201 | 16.1 | 38.6 | 0.00 | 0.00 | 0.00 | 17 | 1020.6 |
| 20260904212504 | 30 | 193 | 17.7 | 27.4 | 0.00 | 0.00 | 0.00 | 16 | 1020.7 |
| 20260904212003 | 30 | 192 | 22.5 | 32.2 | 0.00 | 0.00 | 0.00 | 17 | 1020.6 |
| 20260904211504 | 30 | 210 | 19.3 | 45.1 | 0.00 | 0.00 | 0.00 | 16 | 1020.6 |
| 20260904211003 | 30 | 183 | 19.3 | 27.4 | 0.00 | 0.00 | 0.00 | 17 | 1020.7 |
| 20260904210503 | 30 | 223 | 19.3 | 29.0 | 0.00 | 0.00 | 0.00 | 17 | 1020.6 |
| 20260904205005 | 30 | 205 | 20.9 | 35.4 | 0.00 | 0.00 | 0.00 | 16 | 1020.7 |
| 20260904203504 | 30 | 208 | 20.9 | 32.2 | 0.00 | 0.00 | 0.00 | 17 | 1020.7 |
| 20260904203003 | 30 | 206 | 22.5 | 35.4 | 0.00 | 0.00 | 0.00 | 16 | 1020.8 |
| 20260904202504 | 30 | 193 | 22.5 | 32.2 | 0.00 | 0.00 | 0.00 | 17 | 1020.8 |
| 20260904202003 | 29 | 199 | 24.1 | 33.8 | 0.00 | 0.00 | 0.00 | 16 | 1020.8 |
| 20260904201503 | 29 | 192 | 25.7 | 35.4 | 0.00 | 0.00 | 0.00 | 17 | 1020.8 |
| 20260904201004 | 29 | 203 | 20.9 | 32.2 | 0.00 | 0.00 | 0.00 | 18 | 1021.0 |
| 20260904200503 | 29 | 208 | 20.9 | 33.8 | 0.00 | 0.00 | 0.00 | 17 | 1021.1 |
| 20260904200004 | 29 | 199 | 16.1 | 33.8 | 0.00 | 0.00 | 0.00 | 18 | 1021.3 |
| 20260904195504 | 29 | 198 | 19.3 | 32.2 | 0.00 | 0.00 | 0.00 | 18 | 1021.4 |
| 20260904194503 | 28 | 227 | 19.3 | 32.2 | 0.00 | 0.00 | 0.00 | 18 | 1021.4 |
| 20260904194003 | 28 | 201 | 20.9 | 32.2 | 0.00 | 0.00 | 0.00 | 18 | 1021.4 |
| 20260904193504 | 28 | 193 | 17.7 | 29.0 | 0.00 | 0.00 | 0.00 | 18 | 1021.6 |
| 20260904193004 | 28 | 200 | 19.3 | 32.2 | 0.00 | 0.00 | 0.00 | 18 | 1021.5 |
| 20260904192504 | 28 | 213 | 19.3 | 25.7 | 0.00 | 0.00 | 0.00 | 18 | 1021.5 |
| 20260904192005 | 28 | 203 | 19.3 | 32.2 | 0.00 | 0.00 | 0.00 | 18 | 1021.6 |
| 20260904191504 | 28 | 190 | 19.3 | 32.2 | 0.00 | 0.00 | 0.00 | 17 | 1021.6 |
| 20260904191003 | 28 | 204 | 19.3 | 29.0 | 0.00 | 0.00 | 0.00 | 17 | 1021.7 |
| 20260904190004 | 28 | 180 | 19.3 | 33.8 | 0.00 | 0.00 | 0.00 | 18 | 1021.7 |
| 20260904185504 | 28 | 205 | 20.9 | 29.0 | 0.00 | 0.00 | 0.00 | 19 | 1021.8 |
| 20260904185004 | 28 | 202 | 19.3 | 33.8 | 0.00 | 0.00 | 0.00 | 19 | 1021.8 |
| 20260904184004 | 28 | 173 | 19.3 | 32.2 | 0.00 | 0.00 | 0.00 | 19 | 1021.7 |
| 20260904183504 | 28 | 166 | 19.3 | 33.8 | 0.00 | 0.00 | 0.00 | 20 | 1021.7 |
| 20260904183004 | 27 | 185 | 14.5 | 32.2 | 0.00 | 0.00 | 0.00 | 20 | 1021.8 |
| 20260904182504 | 27 | 196 | 19.3 | 29.0 | 0.00 | 0.00 | 0.00 | 20 | 1021.9 |
| 20260904182004 | 27 | 184 | 20.9 | 32.2 | 0.00 | 0.00 | 0.00 | 21 | 1021.9 |
| 20260904181504 | 27 | 176 | 12.9 | 20.9 | 0.00 | 0.00 | 0.00 | 21 | 1022.1 |
| 20260904181004 | 27 | 204 | 16.1 | 27.4 | 0.00 | 0.00 | 0.00 | 21 | 1022.1 |
| 20260904180504 | 27 | 201 | 16.1 | 29.0 | 0.00 | 0.00 | 0.00 | 21 | 1021.9 |
| 20260904180003 | 27 | 206 | 11.3 | 29.0 | 0.00 | 0.00 | 0.00 | 21 | 1022.0 |
| 20260904175503 | 27 | 211 | 17.7 | 24.1 | 0.00 | 0.00 | 0.00 | 21 | 1022.1 |
| 20260904175004 | 27 | 217 | 14.5 | 24.1 | 0.00 | 0.00 | 0.00 | 21 | 1022.1 |
| 20260904174503 | 27 | 235 | 14.5 | 24.1 | 0.00 | 0.00 | 0.00 | 21 | 1022.1 |
| 20260904173504 | 27 | 220 | 14.5 | 22.5 | 0.00 | 0.00 | 0.00 | 21 | 1022.1 |
| 20260904172004 | 27 | 193 | 11.3 | 33.8 | 0.00 | 0.00 | 0.00 | 23 | 1022.0 |
| 20260904171504 | 26 | 134 | 3.2 | 11.3 | 0.00 | 0.00 | 0.00 | 27 | 1021.9 |
| 20260904171004 | 26 | 114 | 1.6 | 11.3 | 0.00 | 0.00 | 0.00 | 27 | 1022.0 |
| 20260904170504 | 26 | 144 | 9.7 | 16.1 | 0.00 | 0.00 | 0.00 | 28 | 1022.0 |
| 20260904170003 | 26 | 80 | 4.8 | 11.3 | 0.00 | 0.00 | 0.00 | 28 | 1022.0 |
| 20260904165504 | 25 | 93 | 3.2 | 11.3 | 0.00 | 0.00 | 0.00 | 29 | 1021.9 |
| 20260904165004 | 25 | 124 | 9.7 | 14.5 | 0.00 | 0.00 | 0.00 | 29 | 1021.7 |
| 20260904164504 | 25 | 131 | 3.2 | 12.9 | 0.00 | 0.00 | 0.00 | 28 | 1021.7 |
| 20260904164005 | 25 | 113 | 3.2 | 14.5 | 0.00 | 0.00 | 0.00 | 29 | 1021.7 |
| 20260904163503 | 25 | 138 | 9.7 | 12.9 | 0.00 | 0.00 | 0.00 | 29 | 1021.6 |
| 20260904162504 | 25 | 86 | 3.2 | 9.7 | 0.00 | 0.00 | 0.00 | 29 | 1021.5 |
| 20260904162004 | 25 | 105 | 3.2 | 4.8 | 0.00 | 0.00 | 0.00 | 30 | 1021.4 |
| 20260904161504 | 25 | 94 | 3.2 | 8.0 | 0.00 | 0.00 | 0.00 | 29 | 1021.4 |
| 20260904161004 | 25 | 125 | 1.6 | 4.8 | 0.00 | 0.00 | 0.00 | 30 | 1021.3 |
| 20260904160504 | 25 | 90 | 1.6 | 4.8 | 0.00 | 0.00 | 0.00 | 30 | 1021.3 |
| 20260904160004 | 25 | 96 | 3.2 | 9.7 | 0.00 | 0.00 | 0.00 | 30 | 1021.3 |
| 20260904155504 | 25 | 150 | 3.2 | 4.8 | 0.00 | 0.00 | 0.00 | 30 | 1021.4 |
| 20260904155006 | 25 | 155 | 1.6 | 3.2 | 0.00 | 0.00 | 0.00 | 30 | 1021.4 |
| 20260904154504 | 25 | 155 | 0.0 | 4.8 | 0.00 | 0.00 | 0.00 | 30 | 1021.4 |
| 20260904154004 | 24 | 179 | 0.0 | 1.6 | 0.00 | 0.00 | 0.00 | 30 | 1021.5 |
| 20260904153004 | 25 | 181 | 0.0 | 3.2 | 0.00 | 0.00 | 0.00 | 30 | 1021.4 |
| 20260904152504 | 25 | 182 | 0.0 | 1.6 | 0.00 | 0.00 | 0.00 | 31 | 1021.4 |
| 20260904152003 | 25 | 204 | 0.0 | 3.2 | 0.00 | 0.00 | 0.00 | 31 | 1021.3 |
| 20260904151504 | 24 | 209 | 0.0 | 0.0 | 0.00 | 0.00 | 0.00 | 31 | 1021.3 |
| 20260904151003 | 23 | 209 | 0.0 | 0.0 | 0.00 | 0.00 | 0.00 | 32 | 1021.3 |
| 20260904150505 | 23 | 209 | 0.0 | 0.0 | 0.00 | 0.00 | 0.00 | 32 | 1021.2 |
| 20260904150005 | 22 | 209 | 0.0 | 0.0 | 0.00 | 0.00 | 0.00 | 32 | 1021.2 |
| 20260904145504 | 22 | 209 | 0.0 | 0.0 | 0.00 | 0.00 | 0.00 | 33 | 1021.2 |
| 20260904145003 | 21 | 209 | 0.0 | 0.0 | 0.00 | 0.00 | 0.00 | 34 | 1021.2 |
| 20260904144504 | 21 | 209 | 0.0 | 0.0 | 0.00 | 0.00 | 0.00 | 35 | 1021.1 |
| 20260904144004 | 20 | 209 | 0.0 | 0.0 | 0.00 | 0.00 | 0.00 | 36 | 1021.0 |
| 20260904143504 | 19 | 209 | 0.0 | 0.0 | 0.00 | 0.00 | 0.00 | 37 | 1021.0 |
| 20260904143003 | 19 | 209 | 0.0 | 0.0 | 0.00 | 0.00 | 0.00 | 38 | 1021.0 |
| 20260904142503 | 18 | 209 | 0.0 | 0.0 | 0.00 | 0.00 | 0.00 | 37 | 1020.9 |
| 20260904142004 | 18 | 209 | 1.6 | 4.8 | 0.00 | 0.00 | 0.00 | 37 | 1020.7 |
| 20260904141504 | 18 | 209 | 0.0 | 0.0 | 0.00 | 0.00 | 0.00 | 37 | 1020.7 |
| 20260904141004 | 18 | 209 | 0.0 | 1.6 | 0.00 | 0.00 | 0.00 | 39 | 1020.5 |
| 20260904140504 | 18 | 209 | 0.0 | 0.0 | 0.00 | 0.00 | 0.00 | 39 | 1020.5 |
| 20260904140004 | 18 | 209 | 0.0 | 4.8 | 0.00 | 0.00 | 0.00 | 39 | 1020.4 |
| 20260904135504 | 17 | 209 | 3.2 | 4.8 | 0.00 | 0.00 | 0.00 | 42 | 1020.4 |
| 20260904135005 | 16 | 225 | 1.6 | 4.8 | 0.00 | 0.00 | 0.00 | 43 | 1020.2 |
| 20260904134004 | 16 | 226 | 0.0 | 1.6 | 0.00 | 0.00 | 0.00 | 43 | 1020.1 |
| 20260904133504 | 16 | 226 | 0.0 | 1.6 | 0.00 | 0.00 | 0.00 | 42 | 1020.1 |
| 20260904133004 | 16 | 226 | 0.0 | 3.2 | 0.00 | 0.00 | 0.00 | 42 | 1019.9 |
| 20260904132003 | 17 | 222 | 1.6 | 3.2 | 0.00 | 0.00 | 0.00 | 40 | 1019.9 |
| 20260904131504 | 17 | 222 | 0.0 | 4.8 | 0.00 | 0.00 | 0.00 | 41 | 1019.9 |
| 20260904131004 | 17 | 223 | 1.6 | 4.8 | 0.00 | 0.00 | 0.00 | 41 | 1019.8 |
| 20260904130504 | 17 | 224 | 1.6 | 4.8 | 0.00 | 0.00 | 0.00 | 41 | 1019.7 |
| 20260904130004 | 17 | 225 | 1.6 | 4.8 | 0.00 | 0.00 | 0.00 | 40 | 1019.7 |
| 20260904125503 | 17 | 232 | 0.0 | 1.6 | 0.00 | 0.00 | 0.00 | 41 | 1019.7 |
| 20260904125005 | 17 | 232 | 3.2 | 8.0 | 0.00 | 0.00 | 0.00 | 39 | 1019.7 |
| 20260904124504 | 17 | 224 | 4.8 | 4.8 | 0.00 | 0.00 | 0.00 | 40 | 1019.5 |
| 20260904124005 | 17 | 215 | 4.8 | 9.7 | 0.00 | 0.00 | 0.00 | 41 | 1019.6 |
| 20260904123503 | 16 | 224 | 3.2 | 4.8 | 0.00 | 0.00 | 0.00 | 42 | 1019.6 |
| 20260904123004 | 16 | 228 | 0.0 | 3.2 | 0.00 | 0.00 | 0.00 | 42 | 1019.6 |
| 20260904122504 | 16 | 230 | 1.6 | 4.8 | 0.00 | 0.00 | 0.00 | 43 | 1019.6 |
| 20260904122004 | 16 | 230 | 3.2 | 8.0 | 0.00 | 0.00 | 0.00 | 42 | 1019.6 |
| 20260904121504 | 16 | 234 | 1.6 | 4.8 | 0.00 | 0.00 | 0.00 | 44 | 1019.7 |
| 20260904121003 | 16 | 236 | 1.6 | 3.2 | 0.00 | 0.00 | 0.00 | 45 | 1019.6 |
| 20260904120504 | 16 | 238 | 0.0 | 1.6 | 0.00 | 0.00 | 0.00 | 46 | 1019.7 |
| 20260904120004 | 16 | 238 | 0.0 | 3.2 | 0.00 | 0.00 | 0.00 | 45 | 1019.5 |
| 20260904115504 | 16 | 238 | 1.6 | 4.8 | 0.00 | 0.00 | 0.00 | 46 | 1019.7 |
| 20260904114504 | 15 | 235 | 1.6 | 3.2 | 0.00 | 0.00 | 0.00 | 46 | 1019.8 |
| 20260904114003 | 15 | 235 | 1.6 | 3.2 | 0.00 | 0.00 | 0.00 | 46 | 1019.7 |
| 20260904113503 | 15 | 231 | 0.0 | 1.6 | 0.00 | 0.00 | 0.00 | 47 | 1019.8 |
| 20260904113004 | 15 | 231 | 0.0 | 0.0 | 0.00 | 0.00 | 0.00 | 48 | 1019.6 |
| 20260904112504 | 15 | 231 | 0.0 | 1.6 | 0.00 | 0.00 | 0.00 | 47 | 1019.6 |
| 20260904112004 | 15 | 231 | 0.0 | 0.0 | 0.00 | 0.00 | 0.00 | 47 | 1019.7 |
| 20260904111504 | 15 | 231 | 0.0 | 0.0 | 0.00 | 0.00 | 0.00 | 47 | 1019.6 |
| 20260904111004 | 15 | 231 | 0.0 | 0.0 | 0.00 | 0.00 | 0.00 | 47 | 1019.6 |
| 20260904110003 | 15 | 230 | 0.0 | 0.0 | 0.00 | 0.00 | 0.00 | 47 | 1019.4 |
| 20260904105503 | 15 | 230 | 0.0 | 0.0 | 0.00 | 0.00 | 0.00 | 46 | 1019.4 |
| 20260904105005 | 16 | 230 | 0.0 | 3.2 | 0.00 | 0.00 | 0.00 | 45 | 1019.5 |
| 20260904104504 | 16 | 230 | 0.0 | 3.2 | 0.00 | 0.00 | 0.00 | 45 | 1019.4 |
| 20260904103504 | 16 | 229 | 0.0 | 4.8 | 0.00 | 0.00 | 0.00 | 45 | 1019.4 |
| 20260904103003 | 16 | 224 | 1.6 | 4.8 | 0.00 | 0.00 | 0.00 | 45 | 1019.3 |
| 20260904102504 | 16 | 213 | 1.6 | 3.2 | 0.00 | 0.00 | 0.00 | 46 | 1019.3 |
| 20260904102004 | 16 | 212 | 0.0 | 0.0 | 0.00 | 0.00 | 0.00 | 46 | 1019.4 |
| 20260904101504 | 16 | 212 | 1.6 | 4.8 | 0.00 | 0.00 | 0.00 | 47 | 1019.3 |
| 20260904100503 | 16 | 223 | 3.2 | 4.8 | 0.00 | 0.00 | 0.00 | 50 | 1019.2 |
| 20260904095004 | 16 | 200 | 1.6 | 4.8 | 0.00 | 0.00 | 0.00 | 51 | 1019.2 |
| 20260904094504 | 16 | 190 | 1.6 | 3.2 | 0.00 | 0.00 | 0.00 | 49 | 1019.2 |
| 20260904093506 | 16 | 190 | 1.6 | 4.8 | 0.00 | 0.00 | 0.00 | 51 | 1019.3 |
| 20260904093004 | 16 | 192 | 0.0 | 1.6 | 0.00 | 0.00 | 0.00 | 48 | 1019.2 |
| 20260904092504 | 16 | 192 | 0.0 | 0.0 | 0.00 | 0.00 | 0.00 | 47 | 1019.3 |
| 20260904092004 | 16 | 192 | 0.0 | 0.0 | 0.00 | 0.00 | 0.00 | 46 | 1019.3 |
| 20260904091503 | 16 | 192 | 0.0 | 0.0 | 0.00 | 0.00 | 0.00 | 47 | 1019.3 |
| 20260904091004 | 16 | 192 | 0.0 | 0.0 | 0.00 | 0.00 | 0.00 | 45 | 1019.3 |
| 20260904090504 | 16 | 192 | 0.0 | 0.0 | 0.00 | 0.00 | 0.00 | 45 | 1019.3 |
| 20260904090005 | 16 | 192 | 0.0 | 0.0 | 0.00 | 0.00 | 0.00 | 45 | 1019.3 |
| 20260904085505 | 17 | 191 | 0.0 | 0.0 | 0.00 | 0.00 | 0.00 | 44 | 1019.5 |
| 20260904085005 | 17 | 191 | 0.0 | 0.0 | 0.00 | 0.00 | 0.00 | 44 | 1019.4 |
| 20260904084503 | 17 | 191 | 0.0 | 3.2 | 0.00 | 0.00 | 0.00 | 43 | 1019.5 |
| 20260904084004 | 17 | 228 | 0.0 | 3.2 | 0.00 | 0.00 | 0.00 | 42 | 1019.4 |
| 20260904083504 | 17 | 237 | 0.0 | 0.0 | 0.00 | 0.00 | 0.00 | 41 | 1019.4 |
| 20260904083004 | 18 | 237 | 0.0 | 4.8 | 0.00 | 0.00 | 0.00 | 41 | 1019.4 |
| 20260904082004 | 18 | 261 | 0.0 | 1.6 | 0.00 | 0.00 | 0.00 | 40 | 1019.4 |
| 20260904081504 | 18 | 261 | 0.0 | 0.0 | 0.00 | 0.00 | 0.00 | 39 | 1019.3 |
| 20260904080504 | 20 | 235 | 0.0 | 3.2 | 0.00 | 0.00 | 0.00 | 39 | 1019.4 |
| 20260904080004 | 20 | 235 | 0.0 | 0.0 | 0.00 | 0.00 | 0.00 | 40 | 1019.4 |
| 20260904075504 | 20 | 235 | 0.0 | 3.2 | 0.00 | 0.00 | 0.00 | 40 | 1019.5 |
| 20260904074504 | 21 | 225 | 3.2 | 8.0 | 0.00 | 0.00 | 0.00 | 40 | 1019.6 |
| 20260904074004 | 21 | 240 | 1.6 | 4.8 | 0.00 | 0.00 | 0.00 | 38 | 1019.7 |
| 20260904072504 | 21 | 295 | 8.0 | 12.9 | 0.00 | 0.00 | 0.00 | 39 | 1019.5 |
| 20260904071504 | 20 | 305 | 0.0 | 3.2 | 0.00 | 0.00 | 0.00 | 41 | 1019.3 |
| 20260904070504 | 20 | 200 | 0.0 | 1.6 | 0.00 | 0.00 | 0.00 | 38 | 1019.2 |
| 20260904070004 | 20 | 180 | 0.0 | 4.8 | 0.00 | 0.00 | 0.00 | 38 | 1019.2 |
| 20260904065505 | 20 | 170 | 0.0 | 4.8 | 0.00 | 0.00 | 0.00 | 38 | 1019.2 |
| 20260904064503 | 20 | 161 | 3.2 | 8.0 | 0.00 | 0.00 | 0.00 | 38 | 1019.2 |
| 20260904064004 | 20 | 186 | 0.0 | 3.2 | 0.00 | 0.00 | 0.00 | 39 | 1019.2 |
| 20260904063003 | 20 | 243 | 0.0 | 0.0 | 0.00 | 0.00 | 0.00 | 38 | 1019.3 |
| 20260904062504 | 21 | 243 | 0.0 | 0.0 | 0.00 | 0.00 | 0.00 | 37 | 1019.2 |
| 20260904062004 | 21 | 243 | 0.0 | 0.0 | 0.00 | 0.00 | 0.00 | 37 | 1019.3 |
| 20260904061504 | 21 | 243 | 0.0 | 0.0 | 0.00 | 0.00 | 0.00 | 37 | 1019.2 |
| 20260904061004 | 21 | 243 | 0.0 | 4.8 | 0.00 | 0.00 | 0.00 | 36 | 1019.3 |
| 20260904060504 | 22 | 206 | 11.3 | 19.3 | 0.00 | 0.00 | 0.00 | 37 | 1019.2 |
| 20260904060004 | 22 | 178 | 12.9 | 19.3 | 0.00 | 0.00 | 0.00 | 37 | 1019.3 |
| 20260904055504 | 22 | 190 | 9.7 | 16.1 | 0.00 | 0.00 | 0.00 | 36 | 1019.3 |
| 20260904054003 | 21 | 166 | 12.9 | 19.3 | 0.00 | 0.00 | 0.00 | 36 | 1019.3 |
| 20260904053504 | 21 | 188 | 8.0 | 12.9 | 0.00 | 0.00 | 0.00 | 36 | 1019.3 |
| 20260904053005 | 21 | 193 | 6.4 | 11.3 | 0.00 | 0.00 | 0.00 | 36 | 1019.3 |
| 20260904052504 | 21 | 192 | 9.7 | 12.9 | 0.00 | 0.00 | 0.00 | 36 | 1019.2 |
| 20260904052004 | 22 | 199 | 9.7 | 11.3 | 0.00 | 0.00 | 0.00 | 36 | 1019.5 |
| 20260904051504 | 22 | 208 | 4.8 | 11.3 | 0.00 | 0.00 | 0.00 | 35 | 1019.5 |
| 20260904051004 | 21 | 190 | 8.0 | 12.9 | 0.00 | 0.00 | 0.00 | 36 | 1019.5 |
| 20260904050504 | 22 | 186 | 0.0 | 1.6 | 0.00 | 0.00 | 0.00 | 35 | 1019.5 |
| 20260904050004 | 22 | 186 | 0.0 | 1.6 | 0.00 | 0.00 | 0.00 | 35 | 1019.5 |
| 20260904045504 | 22 | 186 | 3.2 | 11.3 | 0.00 | 0.00 | 0.00 | 35 | 1019.5 |
| 20260904044504 | 23 | 183 | 8.0 | 12.9 | 0.00 | 0.00 | 0.00 | 35 | 1019.5 |
| 20260904043504 | 23 | 248 | 1.6 | 12.9 | 0.00 | 0.00 | 0.00 | 35 | 1019.5 |
| 20260904043004 | 23 | 255 | 3.2 | 8.0 | 0.00 | 0.00 | 0.00 | 35 | 1019.5 |
| 20260904042504 | 23 | 251 | 4.8 | 12.9 | 0.00 | 0.00 | 0.00 | 35 | 1019.5 |
| 20260904042004 | 23 | 231 | 4.8 | 9.7 | 0.00 | 0.00 | 0.00 | 35 | 1019.5 |
| 20260904041504 | 23 | 265 | 3.2 | 9.7 | 0.00 | 0.00 | 0.00 | 35 | 1019.5 |
| 20260904041006 | 23 | 255 | 3.2 | 12.9 | 0.00 | 0.00 | 0.00 | 34 | 1019.5 |
| 20260904040504 | 23 | 253 | 1.6 | 4.8 | 0.00 | 0.00 | 0.00 | 34 | 1019.4 |
| 20260904040004 | 23 | 267 | 3.2 | 9.7 | 0.00 | 0.00 | 0.00 | 34 | 1019.4 |
| 20260904035505 | 24 | 286 | 6.4 | 12.9 | 0.00 | 0.00 | 0.00 | 34 | 1019.4 |
| 20260904035004 | 24 | 291 | 4.8 | 14.5 | 0.00 | 0.00 | 0.00 | 34 | 1019.2 |
| 20260904034504 | 23 | 291 | 9.7 | 16.1 | 0.00 | 0.00 | 0.00 | 33 | 1019.2 |
| 20260904034004 | 23 | 270 | 3.2 | 9.7 | 0.00 | 0.00 | 0.00 | 36 | 1019.1 |
| 20260904033504 | 23 | 273 | 4.8 | 12.9 | 0.00 | 0.00 | 0.00 | 36 | 1019.1 |
| 20260904033004 | 23 | 267 | 6.4 | 11.3 | 0.00 | 0.00 | 0.00 | 36 | 1019.0 |
| 20260904032004 | 23 | 235 | 8.0 | 12.9 | 0.00 | 0.00 | 0.00 | 36 | 1019.0 |
| 20260904030503 | 24 | 222 | 11.3 | 20.9 | 0.00 | 0.00 | 0.00 | 34 | 1018.8 |
| 20260904025005 | 24 | 229 | 14.5 | 19.3 | 0.00 | 0.00 | 0.00 | 34 | 1018.9 |
| 20260904024504 | 24 | 236 | 8.0 | 19.3 | 0.00 | 0.00 | 0.00 | 34 | 1019.0 |
| 20260904024005 | 25 | 237 | 8.0 | 19.3 | 0.00 | 0.00 | 0.00 | 33 | 1019.0 |
| 20260904023505 | 25 | 236 | 9.7 | 19.3 | 0.00 | 0.00 | 0.00 | 32 | 1018.9 |
| 20260904023004 | 25 | 216 | 9.7 | 19.3 | 0.00 | 0.00 | 0.00 | 30 | 1018.8 |
| 20260904022504 | 25 | 206 | 6.4 | 11.3 | 0.00 | 0.00 | 0.00 | 30 | 1018.8 |
| 20260904022005 | 25 | 223 | 8.0 | 14.5 | 0.00 | 0.00 | 0.00 | 31 | 1018.9 |
| 20260904021504 | 25 | 242 | 3.2 | 9.7 | 0.00 | 0.00 | 0.00 | 31 | 1018.9 |
| 20260904021004 | 26 | 270 | 6.4 | 19.3 | 0.00 | 0.00 | 0.00 | 30 | 1019.0 |
| 20260904020504 | 26 | 224 | 9.7 | 19.3 | 0.00 | 0.00 | 0.00 | 30 | 1018.9 |
| 20260904020005 | 26 | 238 | 9.7 | 19.3 | 0.00 | 0.00 | 0.00 | 28 | 1019.0 |
| 20260904015504 | 26 | 210 | 12.9 | 19.3 | 0.00 | 0.00 | 0.00 | 27 | 1018.9 |
| 20260904015005 | 26 | 208 | 11.3 | 19.3 | 0.00 | 0.00 | 0.00 | 28 | 1018.9 |
| 20260904014504 | 27 | 218 | 11.3 | 20.9 | 0.00 | 0.00 | 0.00 | 27 | 1018.8 |
| 20260904014004 | 27 | 225 | 16.1 | 25.7 | 0.00 | 0.00 | 0.00 | 27 | 1018.9 |
| 20260904013504 | 27 | 216 | 14.5 | 25.7 | 0.00 | 0.00 | 0.00 | 27 | 1018.9 |
| 20260904012503 | 27 | 217 | 11.3 | 20.9 | 0.00 | 0.00 | 0.00 | 25 | 1018.8 |
| 20260904011505 | 28 | 214 | 16.1 | 25.7 | 0.00 | 0.00 | 0.00 | 24 | 1018.7 |
| 20260904011005 | 28 | 210 | 11.3 | 19.3 | 0.00 | 0.00 | 0.00 | 24 | 1018.8 |
| 20260904010504 | 28 | 220 | 14.5 | 24.1 | 0.00 | 0.00 | 0.00 | 23 | 1018.8 |
| 20260904010004 | 28 | 216 | 14.5 | 24.1 | 0.00 | 0.00 | 0.00 | 23 | 1018.7 |
| 20260904005504 | 28 | 207 | 16.1 | 24.1 | 0.00 | 0.00 | 0.00 | 23 | 1018.7 |
| 20260904005004 | 29 | 229 | 12.9 | 27.4 | 0.00 | 0.00 | 0.00 | 23 | 1018.7 |
| 20260904004504 | 29 | 230 | 11.3 | 20.9 | 0.00 | 0.00 | 0.00 | 22 | 1018.7 |
| 20260904004004 | 29 | 229 | 19.3 | 27.4 | 0.00 | 0.00 | 0.00 | 22 | 1018.7 |
| 20260904003505 | 29 | 222 | 14.5 | 25.7 | 0.00 | 0.00 | 0.00 | 22 | 1018.8 |
| 20260904003004 | 29 | 226 | 16.1 | 25.7 | 0.00 | 0.00 | 0.00 | 21 | 1018.8 |
| 20260904002004 | 29 | 208 | 22.5 | 32.2 | 0.00 | 0.00 | 0.00 | 21 | 1019.0 |
| 20260904001504 | 29 | 217 | 16.1 | 24.1 | 0.00 | 0.00 | 0.00 | 19 | 1018.9 |
| 20260904001004 | 30 | 220 | 16.1 | 27.4 | 0.00 | 0.00 | 0.00 | 19 | 1019.0 |
| 20260904000504 | 29 | 182 | 16.1 | 27.4 | 0.00 | 0.00 | 0.00 | 19 | 1018.9 |
| 20260904000004 | 30 | 199 | 14.5 | 25.7 | 0.00 | 0.00 | 0.00 | 19 | 1019.0 |
| 20260903235004 | 30 | 201 | 17.7 | 27.4 | 0.00 | 0.00 | 0.00 | 18 | 1019.2 |
| 20260903234505 | 30 | 179 | 20.9 | 35.4 | 0.00 | 0.00 | 0.00 | 18 | 1019.3 |
| 20260903234004 | 30 | 174 | 19.3 | 40.2 | 0.00 | 0.00 | 0.00 | 19 | 1019.3 |
| 20260903233504 | 30 | 178 | 20.9 | 37.0 | 0.00 | 0.00 | 0.00 | 18 | 1019.3 |
| 20260903233004 | 30 | 203 | 16.1 | 32.2 | 0.00 | 0.00 | 0.00 | 18 | 1019.3 |
| 20260903232504 | 30 | 177 | 19.3 | 32.2 | 0.00 | 0.00 | 0.00 | 18 | 1019.3 |
| 20260903231504 | 30 | 181 | 16.1 | 25.7 | 0.00 | 0.00 | 0.00 | 18 | 1019.4 |
| 20260903230504 | 30 | 157 | 19.3 | 33.8 | 0.00 | 0.00 | 0.00 | 18 | 1019.5 |
| 20260903230003 | 30 | 179 | 17.7 | 32.2 | 0.00 | 0.00 | 0.00 | 17 | 1019.5 |
| 20260903225503 | 30 | 162 | 20.9 | 38.6 | 0.00 | 0.00 | 0.00 | 17 | 1019.5 |
| 20260903225003 | 30 | 158 | 24.1 | 32.2 | 0.00 | 0.00 | 0.00 | 17 | 1019.6 |
| 20260903224503 | 30 | 173 | 19.3 | 32.2 | 0.00 | 0.00 | 0.00 | 17 | 1019.6 |
| 20260903224003 | 30 | 199 | 20.9 | 29.0 | 0.00 | 0.00 | 0.00 | 17 | 1019.6 |
| 20260903223503 | 30 | 185 | 19.3 | 32.2 | 0.00 | 0.00 | 0.00 | 17 | 1019.7 |
| 20260903222502 | 30 | 172 | 19.3 | 35.4 | 0.00 | 0.00 | 0.00 | 17 | 1019.8 |